Regional Weather Roundup
Issued by NWS Green Bay, WI

Home | Current Version | Previous Version | Text Only | Print | Product List | Glossary On
Versions: 1 2 3 4 5 6 7 8 9 10 11 12 13 14 15 16 17 18 19 20 21 22 23 24 25 26 27 28 29 30 31 32 33 34 35 36 37 38 39 40 41 42 43 44 45 46 47 48 49 50
000
ASUS43 KGRB 271000
RWRGRB

NORTH-CENTRAL AND NORTHEAST WISCONSIN REGIONAL WEATHER ROUNDUP
NATIONAL WEATHER SERVICE GREEN BAY WI
400 AM CST MON FEB 27 2017

WIZ005-009-010>012-018-019-271100-
NORTH CENTRAL WISCONSIN

CITY           SKY/WX    TMP DP  RH WIND       PRES   REMARKS
IRONWOOD       CLOUDY     2  -1  88 S3        29.98R
MANITOWISH WTR NOT AVBL
ARBOR VITAE    NOT AVBL
EAGLE RIVER    NOT AVBL
LAND O LAKES   NOT AVBL
RHINELANDER    CLOUDY   N/A N/A N/A CALM      29.97F
PHILLIPS       NOT AVBL
ANTIGO         NOT AVBL
TOMAHAWK       NOT AVBL
MERRILL        NOT AVBL
$$

WIZ013-073-271100-
NORTHEAST WISCONSIN

CITY           SKY/WX    TMP DP  RH WIND       PRES   REMARKS
IRON MOUNTAIN  CLEAR      3  -2  79 NW3       30.01S
MARINETTE      CLEAR     17  11  77 CALM      30.09R
$$

WIZ017-030-035>037-045-271100-
CENTRAL WISCONSIN

CITY           SKY/WX    TMP DP  RH WIND       PRES   REMARKS
MEDFORD        NOT AVBL
WAUSAU         CLOUDY    22  17  81 E3        30.00R
MOSINEE        NOT AVBL
MARSHFIELD     CLOUDY    23  20  88 SE3       29.99S
WISC RAPIDS    CLOUDY    22  21  96 S3        30.03S
STEVENS POINT  NOT AVBL
WAUPACA        NOT AVBL
SHAWANO        NOT AVBL
CLINTONVILLE   NOT AVBL
WAUTOMA        CLEAR     17  15  92 CALM      30.06
$$

WIZ038-039-048-051-271100-
FOX VALLEY

CITY           SKY/WX    TMP DP  RH WIND       PRES   REMARKS
NWS GREEN BAY  CLEAR     23  15  71 NE6       30.07S
APPLETON       NOT AVBL
OSHKOSH        CLEAR     24  19  81 S5        30.06R
FOND DU LAC    CLEAR     24  18  77 S5        30.08R
$$

WIZ022-050-052-271100-
EAST CENTRAL WISCONSIN

CITY           SKY/WX    TMP DP  RH WIND       PRES   REMARKS
EPHRAIM        NOT AVBL
WASHINGTON ISL NOT AVBL
STURGEON BAY   CLEAR     21  15  78 CALM      30.08R
MANITOWOC      NOT AVBL
SHEBOYGAN      CLEAR     25  20  81 SW5       30.08R
$$

LMZ563-521-522-541>543-271100-
LAKESHORE

STATION/POSITION TIME  TEMP    WIND        PRES    VSBY  WAVE
                       AIR SEA DIR/SP/G                  HT/PER
                 (UTC) (F)     (DEG/KT/KT) (MB)    (MI)  (FT/S)
SHEBOYGAN LKSHOR 0900   31     280/  8/  9 1018.8R
KEWAUNEE LKSHORE 0930   24     300/  1/  2 1017.9R
NORTHPORT PIER   0940   24     300/  2/  8 1018.6R
SISTER BAY LKSHO 0850   21      10/  6/  7   N/A
CHAMBERS ISLAND  0940   22      CALM  /  2 1017.9R
MENOMINEE LKSHOR 0930   24     300/  3/  4 1017.7R
$$



USA.gov is the U.S. government's official web portal to all federal, state and local government web resources and services.